• In Deutschland
  • Länderverzeichnis
  • Für 7 Tage
  • Wassertemperatur
  • Satellitenkarten
  • Wetterkarte
  • Widgets
  • user-avatar
    Anmelden

    Stündliche Wetter Bingen am Rhein

    Heute, 17 Oktober, Dienstag

    Zeit Temperatur Niederschläge Wind Luftdruck Luftfeuchtigkeit
    00:00 +15°C° 0 mm 1 m/S 750 mmHg 77%
    01:00 +15°C° 0 mm 1 m/S 750 mmHg 77%
    02:00 +15°C° 0 mm 1 m/S 750 mmHg 78%
    03:00 +14°C° 0 mm 1 m/S 750 mmHg 80%
    04:00 +14°C° 0 mm 1 m/S 750 mmHg 81%
    05:00 +14°C° 0 mm 1 m/S 750 mmHg 82%
    06:00 +13°C° 0 mm 1 m/S 750 mmHg 83%
    07:00 +13°C° 0 mm 1 m/S 750 mmHg 79%
    08:00 +15°C° 0 mm 1 m/S 750 mmHg 74%
    09:00 +16°C° 0 mm 1 m/S 750 mmHg 68%
    10:00 +19°C° 0 mm 1 m/S 750 mmHg 63%
    11:00 +21°C° 0 mm 1 m/S 750 mmHg 60%
    12:00 +22°C° 0 mm 1 m/S 750 mmHg 57%
    13:00 +23°C° 0 mm 1 m/S 750 mmHg 54%
    14:00 +23°C° 0 mm 1 m/S 749 mmHg 56%
    15:00 +23°C° 0 mm 1 m/S 749 mmHg 58%
    16:00 +23°C° 0 mm 1 m/S 748 mmHg 60%
    17:00 +21°C° 0 mm 1 m/S 748 mmHg 65%
    18:00 +19°C° 0 mm 1 m/S 748 mmHg 70%
    19:00 +16°C° 0 mm 1 m/S 747 mmHg 75%
    20:00 +16°C° 0 mm 1 m/S 747 mmHg 76%
    21:00 +15°C° 0 mm 1 m/S 747 mmHg 77%
    22:00 +15°C° 0 mm 1 m/S 747 mmHg 78%
    23:00 +14°C° 0 mm 1 m/S 747 mmHg 78%

    Morgen, 18 Oktober, Mittwoch

    Zeit Temperatur Niederschläge Wind Luftdruck Luftfeuchtigkeit
    00:00 +14°C° 0 mm 1 m/S 747 mmHg 78%
    01:00 +14°C° 0 mm 1 m/S 747 mmHg 78%
    02:00 +13°C° 0 mm 1 m/S 746 mmHg 77%
    03:00 +13°C° 0 mm 1 m/S 746 mmHg 77%
    04:00 +13°C° 0 mm 1 m/S 745 mmHg 77%
    05:00 +12°C° 0 mm 1 m/S 745 mmHg 77%
    06:00 +12°C° 0 mm 1 m/S 745 mmHg 77%
    07:00 +11°C° 0 mm 1 m/S 745 mmHg 77%
    08:00 +13°C° 0 mm 2 m/S 745 mmHg 72%
    09:00 +15°C° 0 mm 2 m/S 745 mmHg 67%
    10:00 +16°C° 0 mm 2 m/S 745 mmHg 62%
    11:00 +18°C° 0 mm 2 m/S 745 mmHg 59%
    12:00 +19°C° 0 mm 2 m/S 745 mmHg 56%
    13:00 +20°C° 0 mm 3 m/S 745 mmHg 53%
    14:00 +20°C° 0 mm 2 m/S 744 mmHg 55%
    15:00 +20°C° 0 mm 2 m/S 744 mmHg 57%
    16:00 +20°C° 0 mm 2 m/S 744 mmHg 59%
    17:00 +19°C° 0 mm 1 m/S 744 mmHg 65%
    18:00 +18°C° 0 mm 1 m/S 744 mmHg 71%
    19:00 +15°C° 0 mm 1 m/S 744 mmHg 77%
    20:00 +14°C° 0 mm 1 m/S 744 mmHg 78%
    21:00 +14°C° 0 mm 1 m/S 744 mmHg 79%
    22:00 +14°C° 0 mm 1 m/S 744 mmHg 80%
    23:00 +13°C° 0 mm 1 m/S 744 mmHg 80%

    übermorgen, 19 Oktober, Donnerstag

    Zeit Temperatur Niederschläge Wind Luftdruck Luftfeuchtigkeit
    00:00 +13°C° 0 mm 1 m/S 744 mmHg 80%
    01:00 +13°C° 0 mm 1 m/S 744 mmHg 81%
    02:00 +13°C° 0 mm 1 m/S 744 mmHg 81%
    03:00 +12°C° 0 mm 1 m/S 744 mmHg 80%
    04:00 +12°C° 0 mm 1 m/S 743 mmHg 80%
    05:00 +12°C° 0 mm 1 m/S 743 mmHg 80%
    06:00 +12°C° 0 mm 1 m/S 743 mmHg 79%
    07:00 +12°C° 0 mm 1 m/S 743 mmHg 79%
    08:00 +14°C° 0 mm 1 m/S 743 mmHg 73%
    09:00 +15°C° 0 mm 1 m/S 744 mmHg 66%
    10:00 +18°C° 0 mm 1 m/S 744 mmHg 60%
    11:00 +18°C° 0 mm 2 m/S 744 mmHg 58%
    12:00 +19°C° 0 mm 2 m/S 744 mmHg 55%
    13:00 +20°C° 0 mm 2 m/S 744 mmHg 53%
    14:00 +19°C° 0 mm 2 m/S 743 mmHg 55%
    15:00 +19°C° 0 mm 2 m/S 743 mmHg 56%
    16:00 +19°C° 0 mm 2 m/S 743 mmHg 58%
    17:00 +18°C° 0 mm 2 m/S 743 mmHg 61%
    18:00 +16°C° 0 mm 1 m/S 743 mmHg 64%
    19:00 +15°C° 0 mm 1 m/S 743 mmHg 67%
    20:00 +15°C° 0 mm 1 m/S 743 mmHg 66%
    21:00 +15°C° 0 mm 1 m/S 743 mmHg 65%
    22:00 +15°C° 0 mm 2 m/S 744 mmHg 64%
    23:00 +15°C° 0 mm 2 m/S 743 mmHg 65%

    20 Oktober, Freitag

    Zeit Temperatur Niederschläge Wind Luftdruck Luftfeuchtigkeit
    00:00 +15°C° 0 mm 1 m/S 743 mmHg 65%
    01:00 +14°C° 0 mm 1 m/S 743 mmHg 65%
    02:00 +14°C° 0 mm 2 m/S 743 mmHg 68%
    03:00 +14°C° 0 mm 2 m/S 743 mmHg 70%
    04:00 +13°C° 0 mm 2 m/S 743 mmHg 72%
    05:00 +13°C° 0,1 mm 2 m/S 743 mmHg 73%
    06:00 +13°C° 0,1 mm 2 m/S 744 mmHg 75%
    07:00 +13°C° 0,1 mm 2 m/S 744 mmHg 76%
    08:00 +14°C° 0,2 mm 3 m/S 744 mmHg 74%
    09:00 +16°C° 0,2 mm 3 m/S 744 mmHg 73%
    10:00 +17°C° 0,2 mm 4 m/S 745 mmHg 71%
    11:00 +18°C° 0 mm 4 m/S 745 mmHg 68%
    12:00 +19°C° 0 mm 4 m/S 745 mmHg 65%
    13:00 +20°C° 0 mm 5 m/S 745 mmHg 61%
    14:00 +20°C° 0 mm 4 m/S 745 mmHg 63%
    15:00 +20°C° 0 mm 3 m/S 744 mmHg 64%
    16:00 +20°C° 0 mm 3 m/S 744 mmHg 66%
    17:00 +18°C° 0 mm 2 m/S 744 mmHg 72%
    18:00 +17°C° 0 mm 2 m/S 745 mmHg 77%
    19:00 +16°C° 0 mm 2 m/S 745 mmHg 83%
    20:00 +15°C° 0 mm 2 m/S 745 mmHg 84%
    21:00 +15°C° 0 mm 2 m/S 745 mmHg 86%
    22:00 +15°C° 0 mm 2 m/S 745 mmHg 87%
    23:00 +15°C° 0 mm 2 m/S 745 mmHg 87%

    21 Oktober, Samstag

    Zeit Temperatur Niederschläge Wind Luftdruck Luftfeuchtigkeit
    00:00 +14°C° 0 mm 2 m/S 745 mmHg 87%
    01:00 +14°C° 0 mm 2 m/S 744 mmHg 88%
    02:00 +14°C° 0 mm 2 m/S 744 mmHg 87%
    03:00 +14°C° 0 mm 2 m/S 744 mmHg 86%
    04:00 +14°C° 0 mm 2 m/S 744 mmHg 85%
    05:00 +14°C° 0 mm 2 m/S 744 mmHg 84%
    06:00 +14°C° 0 mm 2 m/S 744 mmHg 82%
    07:00 +13°C° 0 mm 2 m/S 743 mmHg 81%
    08:00 +14°C° 0,1 mm 3 m/S 744 mmHg 78%
    09:00 +16°C° 0,1 mm 3 m/S 744 mmHg 75%
    10:00 +17°C° 0,1 mm 4 m/S 744 mmHg 72%
    11:00 +15°C° 0,6 mm 4 m/S 744 mmHg 77%
    12:00 +15°C° 0,6 mm 4 m/S 744 mmHg 82%
    13:00 +15°C° 0,6 mm 4 m/S 744 mmHg 87%
    14:00 +15°C° 0,2 mm 4 m/S 744 mmHg 86%
    15:00 +16°C° 0,2 mm 3 m/S 745 mmHg 85%
    16:00 +16°C° 0,2 mm 3 m/S 745 mmHg 85%
    17:00 +14°C° 0 mm 3 m/S 745 mmHg 85%
    18:00 +13°C° 0 mm 3 m/S 745 mmHg 85%
    19:00 +12°C° 0 mm 4 m/S 746 mmHg 86%
    20:00 +12°C° 0 mm 4 m/S 746 mmHg 86%
    21:00 +12°C° 0 mm 3 m/S 746 mmHg 86%
    22:00 +11°C° 0 mm 3 m/S 746 mmHg 86%
    23:00 +11°C° 0 mm 3 m/S 746 mmHg 86%

    22 Oktober, Sonntag

    Zeit Temperatur Niederschläge Wind Luftdruck Luftfeuchtigkeit
    00:00 +10°C° 0 mm 3 m/S 746 mmHg 87%
    01:00 +10°C° 0 mm 3 m/S 746 mmHg 87%
    02:00 +10°C° 0 mm 3 m/S 747 mmHg 87%
    03:00 +9°C° 0 mm 3 m/S 747 mmHg 88%
    04:00 +9°C° 0 mm 3 m/S 747 mmHg 88%
    05:00 +8°C° 0 mm 3 m/S 747 mmHg 88%
    06:00 +7°C° 0 mm 4 m/S 747 mmHg 88%
    07:00 +7°C° 0 mm 4 m/S 747 mmHg 89%
    08:00 +7°C° 0 mm 4 m/S 747 mmHg 84%
    09:00 +8°C° 0 mm 5 m/S 747 mmHg 80%
    10:00 +9°C° 0 mm 5 m/S 748 mmHg 75%
    11:00 +9°C° 0 mm 5 m/S 748 mmHg 72%
    12:00 +10°C° 0 mm 5 m/S 748 mmHg 69%
    13:00 +10°C° 0 mm 5 m/S 748 mmHg 66%
    14:00 +10°C° 0 mm 5 m/S 748 mmHg 66%
    15:00 +11°C° 0 mm 4 m/S 748 mmHg 66%
    16:00 +11°C° 0 mm 4 m/S 748 mmHg 66%
    17:00 +10°C° 0 mm 3 m/S 749 mmHg 70%
    18:00 +9°C° 0 mm 3 m/S 749 mmHg 75%
    19:00 +8°C° 0 mm 3 m/S 749 mmHg 79%
    20:00 +8°C° 0 mm 3 m/S 750 mmHg 80%
    21:00 +8°C° 0 mm 3 m/S 750 mmHg 81%
    22:00 +8°C° 0 mm 3 m/S 750 mmHg 82%
    23:00 +7°C° 0 mm 3 m/S 751 mmHg 84%
    Mehr zeigen